Temperature
16 16 16 16 16 16 16 15 15 15 15 15 15 15 15 15 15 14 14 14 14 14 14 14 14 14 14 14 14 13 13 13 13 13 13 13 13 12 12 13 12 12 12
17 16 16 16 16 16 16 15 15 15 15 15 15 15 15 15 15 14 14 14 14 14 14 14 14 14 14 14 14 13 13 13 13 13 13 12 13 12 12 12 12 12 12
17 16 16 16 16 16 15 15 15 15 15 15 15 15 15 15 15 14 14 14 14 14 14 14 14 14 14 14 13 13 13 13 13 13 13 13 12 12 12 12 12 12 12
17 16 16 16 16 16 15 15 15 15 15 15 15 15 15 15 15 14 14 14 14 14 14 14 14 14 14 14 13 13 13 13 13 13 13 12 12 12 12 12 12 12 12
17 16 16 16 16 16 16 15 15 15 15 15 15 15 15 15 15 15 14 14 14 14 14 14 14 14 14 14 13 13 13 13 13 12 12 12 12 12 12 12 11 11 11
17 16 16 16 16 16 16 15 15 15 15 15 15 15 15 15 15 15 14 14 14 14 14 14 13 13 13 13 13 13 13 13 12 12 12 12 12 12 11 11 11 11 11
17 17 16 16 16 16 16 16 16 15 15 15 15 15 15 15 15 15 15 14 14 14 13 13 13 13 13 13 13 13 13 13 13 12 12 11 11 11 11 11 11 11 11
17 17 17 16 16 16 16 16 16 15 15 15 15 15 15 15 15 14 14 14 14 14 13 13 13 13 13 13 13 13 12 12 12 12 12 12 11 11 11 11 11 11 11
17 17 17 16 16 16 16 16 16 15 15 15 15 15 15 14 14 14 14 14 13 13 13 13 13 13 13 13 12 12 12 12 12 12 12 12 11 11 11 11 10 10 10
17 17 16 16 16 16 16 16 15 15 15 15 15 15 14 14 14 14 14 13 13 13 13 13 13 13 13 12 12 12 12 11 11 11 11 11 11 11 11 10 10 9 9
17 17 16 16 16 16 16 15 15 15 15 15 14 14 14 14 14 14 14 13 13 13 12 12 12 12 12 12 12 11 11 11 11 11 11 10 10 10 10 10 9 9 9
17 17 16 16 16 16 16 15 15 15 15 14 14 14 14 14 14 13 13 13 13 12 12 12 12 12 12 12 11 11 11 11 10 10 10 10 10 9 9 9 9 9 8
17 16 16 16 16 16 15 15 15 15 14 14 14 13 13 13 13 13 13 13 12 12 12 12 12 11 11 11 11 11 10 10 10 10 9 9 9 9 9 8 8 8 8
16 16 16 16 15 15 15 15 14 14 14 13 13 13 13 13 13 12 12 12 12 12 11 11 11 11 11 10 10 10 10 9 9 9 9 9 8 8 8 8 8 7 7
16 15 15 15 15 15 15 14 14 14 14 13 13 13 13 12 12 12 12 12 12 11 11 11 10 10 10 10 9 9 9 9 9 8 8 8 8 7 7 7 7 7 6
15 15 15 15 15 14 14 14 14 13 13 13 13 12 12 12 12 12 11 11 11 11 11 10 10 10 9 9 9 9 8 8 8 8 7 7 7 7 6 6 6 6 5
15 15 15 15 14 14 14 13 13 13 12 12 12 12 12 12 11 11 11 11 11 10 10 10 9 9 9 8 8 8 7 7 7 7 6 6 6 6 6 5 5 5 5
15 15 15 14 14 14 13 13 13 12 12 12 12 11 11 11 11 11 10 10 10 10 9 9 9 8 8 8 7 7 7 6 6 6 6 5 5 5 5 4 4 4 4
14 14 14 14 14 13 13 13 12 12 12 11 11 11 10 10 10 10 10 10 9 9 9 8 8 8 7 7 6 6 6 5 5 5 5 5 4 4 4 4 3 3 3
14 14 13 13 13 13 12 12 12 11 11 11 10 10 10 10 10 9 9 9 8 8 8 8 7 7 6 6 6 6 5 5 4 4 4 4 3 3 3 3 2 2 2
13 13 13 13 12 12 12 12 11 11 11 10 10 10 10 9 9 9 9 8 8 7 7 7 6 6 6 6 5 5 4 4 4 3 3 3 3 2 2 2 2 1 1
13 13 13 12 12 12 11 11 11 10 10 10 9 9 9 8 8 8 8 8 7 7 7 6 6 6 5 5 4 4 4 4 3 3 2 2 2 2 1 1 1 1 0
12 12 12 12 12 11 11 10 10 10 9 9 9 9 8 8 8 7 7 7 7 6 6 6 5 5 5 4 4 4 3 3 2 2 2 2 1 1 1 0 0 0 -0
12 12 11 11 11 11 10 10 10 9 9 9 8 8 8 7 7 7 6 6 6 6 5 5 4 4 4 4 3 3 2 2 2 2 1 1 1 0 0 -0 -0 -1 -1
11 11 11 10 10 10 10 9 9 9 8 8 8 7 7 7 6 6 6 5 5 5 4 4 4 3 3 3 2 2 2 1 1 1 0 0 -0 -0 -0 -1 -1 -1 -1
10 10 10 10 9 9 9 9 8 8 8 7 7 7 6 6 6 5 5 5 4 4 4 3 3 3 2 2 2 1 1 1 0 0 -0 -0 -1 -1 -1 -1 -1 -2 -2
Wind_Speed
9 8 7 6 6 6 5 4 4 4 4 3 3 2 2 2 2 2 1 1 1 2 2 2 2 2 1 1 1 1 1 1 1 1 1 1 1 2 2 2 3 3 2
8 8 7 7 6 6 5 5 5 4 4 4 3 3 2 2 2 2 2 1 1 1 1 1 1 1 1 1 0 0 1 1 2 2 1 1 2 2 3 3 3 3 2
8 8 8 7 7 6 6 5 5 5 5 4 4 3 3 2 2 2 2 1 1 1 1 1 1 1 0 1 0 0 1 1 1 1 1 1 2 2 3 3 3 3 3
9 8 8 8 7 6 6 5 5 5 5 5 4 3 3 2 2 2 2 2 1 1 1 0 0 0 0 0 0 0 1 1 1 1 1 2 2 2 3 3 3 2 3
9 9 8 8 7 7 6 6 5 5 5 4 4 4 3 3 2 2 2 2 2 1 1 1 1 2 3 2 1 1 1 1 1 2 2 2 2 2 3 3 4 4 4
10 9 8 8 7 7 6 6 5 5 5 4 4 4 4 3 3 2 3 3 2 2 2 1 1 2 2 2 1 2 2 2 3 3 3 4 4 4 3 4 4 5 4
10 9 9 8 8 8 7 7 6 6 5 5 5 4 4 4 5 4 4 3 2 2 2 2 1 1 2 2 3 4 3 3 4 5 5 5 5 4 4 5 5 6 6
10 9 9 9 8 8 7 7 7 6 6 5 5 5 4 4 5 5 5 5 3 3 2 2 2 2 1 2 2 2 2 2 3 4 5 5 5 5 5 6 7 7 7
10 10 10 9 9 8 8 8 7 6 6 5 5 5 5 5 5 5 5 4 3 3 2 2 2 2 2 1 3 3 3 3 2 3 5 5 5 4 4 4 5 6 7
9 9 9 9 9 8 8 7 6 6 5 5 4 4 5 4 5 5 5 3 3 3 2 2 1 1 1 1 3 3 4 4 3 3 4 4 5 4 5 5 5 6 7
7 7 8 8 8 8 7 6 6 6 5 5 4 3 3 3 5 5 4 3 3 3 2 2 1 2 1 2 4 3 4 5 4 4 4 3 3 3 3 5 5 5 7
6 7 7 7 6 6 7 6 6 6 6 5 4 3 2 3 2 4 4 3 3 2 2 1 1 2 1 1 2 3 4 4 3 3 3 3 4 4 4 5 6 7 7
7 7 6 7 6 6 7 7 6 6 5 4 4 3 2 2 2 4 5 4 3 2 1 3 2 1 1 1 0 3 3 3 3 3 4 4 4 5 5 5 6 6 7
7 7 7 7 6 6 4 4 5 5 5 5 4 3 3 2 2 2 3 3 4 3 2 3 3 2 1 1 1 1 2 2 3 4 4 4 4 4 4 4 5 5 6
7 7 7 6 6 6 5 3 4 3 3 4 4 4 3 3 2 2 2 2 2 2 2 1 1 0 0 0 1 2 2 2 3 3 4 4 5 5 5 4 5 6 6
7 7 6 6 6 6 6 5 6 4 6 5 3 2 2 4 5 5 4 3 4 3 2 1 1 1 1 1 2 2 2 2 3 3 4 4 4 5 5 5 5 6 7
7 7 6 6 6 6 6 6 5 4 6 5 4 4 4 5 6 5 4 5 4 4 2 1 1 1 1 2 2 2 3 3 3 4 4 4 5 5 5 6 6 6 7
6 6 6 5 5 5 5 5 5 5 4 3 3 4 4 4 4 4 4 4 3 2 1 0 1 1 2 2 2 3 3 3 3 4 4 5 5 5 6 6 7 8 8
6 5 5 5 5 5 5 5 5 5 4 3 3 4 4 4 5 4 5 2 2 1 0 0 1 1 2 2 2 3 3 3 4 4 4 5 5 6 6 7 8 9 9
5 6 6 5 5 5 5 5 5 5 4 3 3 3 3 3 2 3 2 1 1 1 0 1 1 2 2 2 2 3 3 3 4 4 5 5 6 6 7 8 8 9 8
5 6 7 6 5 5 5 5 5 4 4 3 3 3 4 3 3 3 2 1 0 0 0 1 1 1 2 2 2 3 4 4 4 5 5 5 6 6 7 7 8 9 9
5 5 5 5 5 5 5 5 5 4 4 4 3 4 5 2 2 2 2 1 1 1 1 1 1 1 2 2 3 3 4 4 4 5 5 6 6 7 7 7 8 9 9
5 6 5 5 5 6 5 5 4 4 4 4 4 3 3 2 2 1 2 1 1 1 1 1 1 2 2 3 3 3 4 4 5 6 6 6 7 7 7 8 9 10 10
5 5 5 5 5 5 5 4 4 4 4 4 3 3 3 2 2 1 1 1 1 1 1 1 1 2 2 3 3 4 4 6 7 7 8 7 8 7 8 8 9 10 10
5 5 5 5 5 5 4 4 4 4 4 3 3 3 3 2 2 1 1 1 1 1 1 1 1 1 2 3 4 4 5 7 8 9 9 8 8 8 9 9 9 10 11
5 5 5 4 4 4 4 4 4 4 3 3 3 3 2 2 2 1 1 0 0 1 1 1 1 2 3 3 3 5 6 7 9 10 10 8 8 8 9 8 11 10 11
Wind_Direction
186 188 185 185 184 180 180 174 174 170 170 171 163 155 142 137 133 126 111 107 91 96 101 89 76 54 76 75 66 24 342 333 339 19 42 27 18 0 13 354 349 348 37
187 187 185 180 181 185 186 185 183 179 178 182 171 168 151 150 150 147 138 138 125 82 82 81 78 88 60 42 34 2 0 334 319 334 335 337 329 343 335 329 328 328 327
184 185 183 182 183 188 192 187 188 187 184 186 188 186 174 169 167 168 164 164 156 140 114 89 71 98 114 88 48 350 350 354 325 294 323 342 308 323 313 305 300 303 300
182 186 187 186 186 188 189 189 192 193 193 193 193 191 188 184 191 194 186 186 179 164 153 140 26 342 304 347 247 323 320 307 297 285 296 297 300 314 298 300 302 288 289
187 190 191 190 188 187 184 189 191 191 198 195 194 193 190 193 202 214 198 194 189 176 181 165 75 44 23 0 331 311 286 279 277 283 288 293 291 296 301 299 299 302 292
191 193 189 189 185 186 186 187 190 192 196 189 195 195 191 186 151 204 242 203 199 196 201 203 168 147 152 189 255 308 306 284 286 283 285 290 301 298 300 292 295 300 299
192 189 187 188 187 189 188 185 186 187 187 190 195 197 197 173 159 185 223 229 217 222 227 220 203 194 207 237 200 203 222 242 267 282 286 294 300 304 295 286 287 292 295
190 190 190 190 189 189 188 189 192 191 187 193 198 201 199 181 165 186 206 217 218 221 227 237 227 224 209 265 256 252 265 268 261 264 276 290 304 311 295 290 294 289 287
192 192 191 190 189 189 190 192 192 191 191 194 197 202 200 187 168 183 202 203 214 217 219 230 251 256 88 256 255 262 275 278 231 246 284 296 312 304 294 284 283 284 290
191 193 190 189 189 192 194 193 187 186 189 188 188 197 197 193 159 176 206 208 217 217 212 217 170 272 30 246 256 268 278 290 292 269 256 257 267 252 234 257 278 285 294
182 182 181 183 187 189 188 184 180 178 177 181 178 181 182 176 157 165 197 213 218 223 218 217 147 130 195 273 277 285 301 303 296 292 294 299 296 294 274 265 274 279 285
166 169 173 175 175 174 172 173 175 171 169 175 177 174 179 171 166 170 184 204 249 217 218 216 106 115 163 263 292 324 310 295 290 292 297 305 309 309 305 297 287 280 277
159 161 165 165 164 165 166 167 168 168 173 179 182 181 176 165 151 157 172 175 205 206 148 88 95 129 214 214 355 302 295 301 301 297 302 309 315 315 314 308 300 294 287
158 158 158 157 154 151 152 163 167 172 178 182 182 181 173 162 170 170 173 170 172 183 167 137 147 143 198 338 320 313 323 327 311 306 311 314 316 315 312 314 309 309 300
161 157 157 153 148 144 141 137 159 161 174 175 179 179 176 176 162 140 161 174 186 165 164 172 181 163 263 337 340 345 334 326 320 316 315 320 319 317 317 319 313 308 305
162 158 155 154 154 155 150 132 76 81 90 93 84 113 124 104 112 120 123 110 97 110 140 170 209 246 281 308 318 324 332 332 329 325 321 318 316 316 317 317 313 308 306
160 157 155 158 161 164 164 161 150 115 94 93 97 101 102 112 119 127 126 123 125 142 160 189 245 285 305 313 318 317 321 330 328 323 320 320 318 318 317 315 313 311 308
156 150 151 155 157 159 164 167 165 160 151 131 116 119 122 125 134 137 134 132 127 149 189 231 295 315 320 318 318 317 318 321 322 323 321 322 321 317 316 313 311 311 310
153 153 152 149 150 150 153 155 155 156 153 148 135 126 129 133 128 129 146 156 157 159 182 313 329 328 324 323 324 323 322 322 324 321 320 321 319 316 314 313 312 311 307
147 140 146 148 146 147 149 150 150 152 151 148 146 131 129 133 127 128 150 169 168 138 61 356 351 343 336 335 332 326 323 322 322 320 320 320 320 318 317 316 314 313 311
147 146 148 149 149 151 152 153 151 150 152 150 141 118 133 154 151 146 147 150 163 216 7 359 347 341 335 331 326 321 321 320 319 320 321 320 319 315 313 309 308 307 307
148 148 153 154 152 152 153 152 151 151 154 151 136 124 135 149 144 145 133 114 76 20 350 333 326 332 324 316 312 312 313 314 316 316 315 314 310 307 306 305 307 308 309
148 149 150 150 148 145 151 152 152 153 151 151 143 135 143 148 139 128 111 93 67 34 1 331 328 337 334 327 319 311 309 315 317 315 311 307 306 304 304 304 306 307 308
146 147 149 148 148 149 151 150 149 148 147 145 143 139 137 139 132 117 97 87 76 34 354 333 327 326 326 329 328 323 324 325 319 310 305 301 302 301 300 300 301 304 304
142 143 146 147 148 149 148 147 147 146 146 146 143 139 136 137 134 127 112 92 62 22 347 331 325 327 326 326 325 327 335 329 319 311 305 302 299 299 299 298 299 300 301
136 137 139 141 144 147 148 148 147 146 146 145 145 144 145 145 144 139 133 122 16 318 311 306 309 317 316 317 327 332 327 318 313 309 304 300 296 296 298 296 297 297 300
Height
1565 1567 1569 1570 1571 1573 1574 1575 1576 1577 1577 1578 1578 1578 1578 1578 1578 1577 1577 1577 1577 1576 1576 1575 1575 1574 1574 1573 1573 1572 1572 1572 1572 1571 1569 1567 1566 1564 1563 1561 1560 1558 1557
1564 1566 1567 1569 1570 1571 1573 1574 1575 1576 1577 1577 1578 1578 1578 1578 1578 1577 1577 1577 1576 1576 1576 1576 1575 1574 1574 1573 1572 1572 1571 1571 1571 1570 1569 1567 1565 1564 1562 1561 1560 1558 1557
1562 1564 1566 1567 1568 1570 1572 1573 1574 1575 1576 1576 1577 1577 1577 1577 1577 1577 1577 1577 1576 1576 1575 1575 1575 1574 1574 1573 1572 1572 1571 1570 1570 1569 1568 1566 1565 1563 1561 1560 1559 1557 1556
1560 1562 1563 1565 1567 1568 1570 1571 1573 1574 1575 1575 1576 1576 1576 1576 1576 1576 1576 1576 1576 1575 1575 1575 1574 1574 1573 1573 1572 1571 1571 1570 1569 1568 1567 1565 1564 1562 1561 1559 1558 1556 1555
1558 1560 1562 1564 1565 1567 1568 1569 1571 1572 1573 1574 1575 1575 1575 1575 1575 1575 1575 1575 1575 1575 1575 1574 1574 1573 1572 1572 1571 1571 1570 1569 1568 1567 1566 1565 1563 1561 1560 1558 1557 1555 1553
1555 1557 1559 1561 1563 1564 1566 1567 1569 1570 1571 1572 1573 1573 1574 1574 1574 1574 1574 1574 1574 1574 1574 1573 1573 1572 1571 1571 1570 1569 1568 1568 1567 1566 1565 1564 1562 1560 1558 1557 1555 1553 1552
1553 1555 1557 1559 1560 1562 1563 1565 1566 1568 1569 1570 1571 1571 1572 1572 1572 1573 1573 1573 1573 1573 1573 1572 1571 1571 1570 1570 1569 1568 1567 1566 1565 1564 1563 1562 1561 1559 1557 1555 1553 1551 1550
1550 1552 1554 1556 1558 1560 1561 1563 1564 1566 1567 1568 1569 1570 1570 1570 1571 1571 1571 1571 1571 1571 1571 1570 1570 1569 1568 1568 1567 1566 1566 1564 1563 1562 1561 1559 1558 1556 1555 1553 1551 1549 1547
1547 1549 1551 1553 1555 1557 1559 1560 1562 1563 1564 1565 1566 1567 1568 1568 1569 1569 1569 1569 1570 1569 1569 1568 1568 1568 1567 1566 1565 1564 1563 1562 1561 1559 1558 1557 1555 1553 1552 1550 1548 1547 1545
1544 1546 1549 1551 1553 1555 1556 1558 1560 1561 1562 1563 1564 1564 1565 1566 1566 1567 1567 1567 1568 1567 1567 1566 1566 1565 1565 1563 1563 1562 1561 1560 1559 1557 1556 1554 1552 1551 1549 1547 1546 1544 1542
1542 1544 1546 1548 1550 1552 1554 1555 1557 1558 1559 1560 1561 1562 1562 1563 1564 1564 1564 1565 1565 1565 1565 1564 1563 1563 1562 1561 1560 1560 1558 1557 1556 1555 1553 1551 1550 1548 1546 1544 1542 1541 1539
1540 1542 1544 1546 1548 1549 1551 1553 1554 1555 1557 1558 1559 1559 1560 1560 1561 1561 1562 1562 1562 1562 1562 1561 1561 1560 1560 1559 1558 1557 1556 1555 1553 1552 1551 1549 1547 1545 1543 1541 1539 1537 1535
1538 1539 1541 1543 1545 1547 1549 1550 1551 1553 1554 1555 1556 1557 1557 1558 1558 1559 1559 1559 1559 1559 1559 1558 1558 1557 1557 1556 1555 1554 1553 1552 1551 1549 1548 1546 1544 1542 1540 1537 1535 1533 1531
1535 1537 1539 1541 1543 1544 1546 1547 1549 1550 1551 1552 1553 1554 1555 1555 1556 1556 1556 1557 1556 1556 1556 1556 1555 1555 1554 1553 1552 1551 1550 1549 1548 1546 1544 1543 1541 1539 1536 1534 1532 1529 1527
1534 1535 1537 1539 1540 1541 1543 1544 1546 1547 1548 1550 1551 1551 1552 1553 1553 1554 1554 1554 1554 1553 1553 1553 1553 1552 1552 1551 1550 1549 1547 1546 1545 1543 1541 1539 1537 1535 1533 1530 1528 1526 1524
1532 1534 1535 1536 1538 1539 1541 1542 1543 1545 1546 1547 1548 1549 1550 1551 1551 1551 1552 1552 1551 1551 1551 1551 1550 1550 1549 1548 1547 1546 1544 1543 1541 1540 1538 1536 1534 1531 1529 1527 1525 1522 1520
1529 1531 1532 1534 1535 1537 1538 1539 1541 1543 1544 1545 1546 1547 1547 1548 1548 1549 1549 1549 1548 1548 1548 1548 1548 1547 1546 1545 1544 1543 1541 1540 1538 1536 1535 1532 1530 1528 1526 1523 1521 1519 1516
1527 1529 1530 1531 1533 1534 1536 1537 1539 1540 1541 1542 1543 1544 1545 1545 1546 1546 1546 1546 1546 1546 1546 1545 1545 1544 1543 1542 1541 1540 1538 1536 1535 1533 1531 1529 1527 1525 1522 1520 1518 1515 1512
1525 1526 1528 1529 1531 1532 1534 1535 1536 1538 1539 1540 1541 1542 1542 1543 1543 1544 1544 1544 1544 1543 1543 1543 1542 1541 1540 1539 1538 1536 1535 1533 1531 1529 1527 1525 1523 1521 1518 1516 1514 1511 1508
1523 1524 1526 1527 1528 1530 1531 1533 1534 1535 1536 1537 1538 1539 1540 1540 1540 1541 1541 1541 1541 1541 1540 1540 1539 1538 1537 1536 1534 1533 1531 1529 1528 1526 1524 1521 1519 1517 1514 1512 1510 1507 1504
1521 1523 1524 1525 1526 1528 1529 1530 1532 1533 1534 1535 1536 1536 1537 1537 1538 1538 1538 1538 1538 1538 1537 1536 1536 1535 1533 1532 1531 1529 1527 1526 1524 1522 1520 1517 1515 1513 1510 1507 1505 1502 1499
1519 1521 1522 1523 1524 1526 1527 1528 1529 1531 1532 1533 1533 1534 1534 1535 1535 1535 1535 1535 1535 1535 1534 1533 1532 1531 1530 1529 1527 1526 1524 1522 1520 1518 1515 1513 1511 1508 1505 1503 1500 1497 1494
1517 1519 1520 1521 1522 1524 1525 1526 1527 1528 1529 1530 1531 1531 1532 1532 1532 1533 1532 1532 1532 1532 1531 1530 1529 1528 1527 1525 1524 1522 1520 1518 1516 1513 1511 1508 1506 1503 1501 1498 1495 1492 1489
1515 1516 1518 1519 1520 1521 1522 1523 1524 1525 1526 1527 1528 1528 1529 1529 1529 1530 1529 1529 1529 1528 1528 1526 1525 1524 1523 1521 1519 1518 1516 1513 1511 1509 1506 1504 1501 1498 1496 1493 1490 1487 1484
1513 1514 1516 1517 1518 1519 1520 1521 1522 1523 1523 1524 1525 1525 1526 1526 1526 1526 1526 1526 1525 1524 1524 1522 1521 1520 1518 1517 1515 1513 1511 1509 1506 1504 1501 1499 1496 1494 1491 1488 1485 1482 1479
1510 1511 1513 1514 1515 1516 1517 1518 1519 1520 1521 1521 1522 1522 1523 1523 1523 1523 1523 1522 1521 1520 1519 1518 1517 1515 1514 1512 1510 1508 1506 1504 1502 1499 1497 1494 1491 1489 1486 1483 1480 1477 1474